Location: �terpigny
(49.8910°N, 2.9249°E)
Time: 07:13:22
(UTC+00:00)

NANOSAT C BR1 - Pass Details

Date: 11 July 2022
Orbit: 584 x 599 km, 98.0° (Epoch: 14 August)

Event Time Altitude Azimuth Distance (km) Brightness Sun altitude
Rises 01:02:29 0° 26° (NNE) 2,858 ? -16.4°
Reaches altitude 10° 01:05:08 10° 43° (NE) 1,951 ? -16.3°
Maximum altitude 01:08:21 21° 92° (E) 1,373 ? -16.1°
Enters shadow 01:11:27 11° 141° (SE) 1,908 ? -16.0°
